Location: Paris
(48.8566°N, 2.3522°E)
Time: 10:28:49
(UTC+02:00)

Tiangong - Pass Details

Date: 04 October 2021
Orbit: 382 x 385 km, 41.5° (Epoch: 15 October)

Event Time Altitude Azimuth Distance (km) Brightness Sun altitude
Exits shadow 06:04:00 19° 168° (SSE) 974 3.0 -18.9°
Drops below altitude 10° 06:05:48 10° 135° (SE) 1,397 4.3 -18.6°
Sets 06:08:11 0° 118° (ESE) 2,248 5.7 -18.2°
